COSMOS 2491 DEB *, 45128

Orbit data source: Space-Track

COSMOS 2491 DEB *, 45128 is space debris in LEO originally from a launch on Wed, 25 Dec 2013 UTC launched from the Plesetsk Missile And Space Complex (PKMTR). Debris objects in space refer to the collection of defunct objects orbiting the Earth. Examples of debris include non-operational satellites, rocket bodies, and fragments generated from explosions, collisions, or faulty payload assembly.

Loading next visibility...
Identifier
45128, 2013-076AA
Orbit
LEO
Last TLE update
4 days ago
Origin
Manufacturer
TsNIIKhM
Mission
Spacecraft
Bus & Motor
Unknown
Mass
Unknown
Launch date (UTC)
2013-12-25 (11 years ago)
Launch vehicle
Unknown
Launch site
Plesetsk Missile And Space Complex (PKMTR)
Object type
Payload
Rocket body
Debris
Shape & HBR
Unknown
Radar Cross Section
Small (<0.1 m²)

Expand to show TLE details & history

TLE from 4 days ago
0 COSMOS 2491 DEB *
1 45128U 13076AA  25169.84124818  .00004470  00000-0  14535-2 0  9991
2 45128  81.2104  12.3874 0019948 252.2277 107.6733 14.38584816  9724
Epoch: 2025-06-18T20:11Z
TLE epoch observation values (Epoch: 2025-06-18T20:11:23.842Z)
Latitude
-0.00002°
Longitude
162.22055°
Altitude
770.467 km
Speed
7.467 km/s
True Right ascension
00h 49m 32s
True Declination
0° 00' 00"
Sunlit
Object was in daylight at epoch
Visualization orbit readout
Latitude
-81.22684°
Longitude
63.57589°
Altitude
778.728 km
Speed
7.47 km/s
Apparent Right ascension
15h 14m 50s
Apparent Declination
-63° 13' 51"
Sunlit
Object is in full shadow
Visualization observer readout
Local Sidereal Time
02:38:27
Azimuth
190.109° SSW
Elevation
-66.064°
Doppler factor
1
Orbital elements
Apogee altitude
774.555 km
Perigee altitude
746.076 km
Semi-major axis
7,138.453 km
Eccentricity
0.00199
Inclination
81.2104°
RAAN
12.3874°
Arg. of periapsis
252.2277°
True anomaly
Unknown
Mean anomaly
107.6733°
Eccentric anomaly
Unknown
Mean motion
3.59863 °/min
Orbital period
100.04 mins
BSTAR
0.0014535
Loading maneuver chart data...
Loading SW <> Apogee altitude chart data...
Loading historical data...
Loading historical data...
Loading historical data...
Loading historical data...
Loading historical data...
Loading historical data...
Loading historical data...

COSMOS 2491 DEB * Visibility forecast

Observer location: undefined°, undefined°

Span
Click to sort rows by Start time (UTC) header in descending order
Start Az.
Max El. time (UTC)
Max El. Az.
Max El.
End time (UTC)
End Az.
9 mins2025-06-23 00:55:38.975Z349.531° N2025-06-23 00:59:38.975Z231.359° WSW44.909°2025-06-23 01:04:38.975Z173.928° S
8 mins2025-06-23 13:49:38.975Z188.748° SSW2025-06-23 13:53:38.975Z3.55° NNE43.913°2025-06-23 13:57:38.975Z8.827° NNE
|